Regional Weather Roundup
Issued by NWS Goodland, KS

Home | Current Version | Previous Version | Text Only | Print | Product List | Glossary Off
Versions: 1 2 3 4 5 6 7 8 9 10 11 12 13 14 15 16 17 18 19 20 21 22 23 24 25 26 27 28 29 30 31 32 33 34 35 36 37 38 39 40 41 42 43 44 45 46 47 48 49 50

000
ASUS43 KGLD 241259
RWRGLD

GOODLAND FORECAST AREA HOURLY WEATHER ROUNDUP
NATIONAL WEATHER SERVICE GOODLAND KS
700 AM MDT TUE APR 24 2018

...OFFICIAL OBSERVATIONS...

CITY           SKY/WX    TMP DP  RH WIND       PRES   REMARKS
GOODLAND KS    CLOUDY    39  37  92 NW23G33   30.29R
HILL CITY KS   LGT RAIN  49  45  86 N18G28    30.20R
IMPERIAL NEB   LGT RAIN  40  38  93 NW21      30.31R
MCCOOK NEB     CLOUDY    45  43  93 NW17      30.26R
AKRON CO       LGT SNOW  32  32 100 N22       30.35R VSB 3/4 WCI  19
BURLINGTON CO  MIX PCPN  37  35  92 N18G32    30.32R
LIMON CO       SNOW      32  31  96 N18G26    30.35R VSB 1/2
$$

...UNOFFICIAL OBSERVATIONS...

CITY           SKY/WX    TMP DP  RH WIND       PRES   REMARKS
NORTON KS      LGT RAIN  48  45  87 NW15G22   30.20
KIT CARSON CO    N/A     38  34  85 MISG        N/A
YUMA CO        LGT RAIN  34  32  93 NW17G24   30.35R
$$



USA.gov is the U.S. government's official web portal to all federal, state and local government web resources and services.